EW1179 Weather Reports


time (UTC)temp
F
wind
direction
speed
knots
gust
knots
rain 1hr
in
rain 24hr
in
rain mn
in
humidity
%
barometer
mb
20260503211506 64 253 0.9 5.2 0.00 0.00 0.00 53 1011.3
20260503210005 64 215 0.0 4.3 0.00 0.00 0.00 54 1011.4
20260503204503 64 273 0.0 5.2 0.00 0.00 0.00 54 1011.5
20260503203002 64 284 0.0 5.2 0.00 0.00 0.00 56 1011.7
20260503201501 64 232 0.9 3.5 0.00 0.00 0.00 54 1011.7
20260503200100 63 300 0.0 5.2 0.00 0.00 0.00 54 1011.6
20260503194601 62 236 1.7 6.1 0.00 0.00 0.00 57 1012.0
20260503193055 62 247 1.7 7.0 0.00 0.00 0.00 59 1012.1
20260503191551 60 250 0.9 5.2 0.00 0.00 0.00 62 1012.1
20260503190055 60 202 0.0 3.5 0.00 0.00 0.00 62 1012.3
20260503184605 59 184 0.0 6.1 0.00 0.00 0.00 64 1012.3
20260503183052 60 200 0.0 3.5 0.00 0.00 0.00 64 1012.4
20260503181550 58 207 0.0 2.6 0.00 0.00 0.00 70 1012.5
20260503180040 57 207 0.0 2.6 0.00 0.00 0.00 73 1012.6
20260503174535 55 212 0.0 5.2 0.00 0.00 0.00 77 1012.5
20260503173035 54 212 0.0 4.3 0.00 0.00 0.00 80 1012.6
20260503171537 53 312 0.0 4.3 0.00 0.00 0.00 85 1012.6
20260503081537 52 323 0.0 0.0 0.00 0.00 0.00 84 1010.7
20260503071540 52 190 0.0 2.6 0.00 0.00 0.00 85 1010.5
20260503054527 52 305 0.0 0.0 0.00 0.00 0.00 88 1010.1
20260503053033 52 254 0.0 0.0 0.00 0.00 0.00 88 1010.0
20260503051523 52 207 0.0 0.0 0.00 0.00 0.00 87 1009.8
20260503050024 52 92 0.0 0.9 0.00 0.00 0.00 87 1009.7
20260503044541 52 202 0.0 0.0 0.00 0.00 0.00 87 1009.4
20260503043037 52 11 0.0 0.0 0.00 0.00 0.00 87 1009.1
20260503041520 52 9 0.0 0.0 0.00 0.00 0.00 86 1009.2
20260503040020 52 355 0.0 0.0 0.00 0.00 0.00 86 1009.2
20260503034519 52 5 0.0 0.0 0.00 0.00 0.00 85 1009.2
20260503033020 52 27 0.0 0.9 0.00 0.00 0.00 85 1009.2
20260503031526 52 284 0.0 0.0 0.00 0.00 0.00 85 1009.3
20260503030019 53 221 0.0 2.6 0.00 0.00 0.00 84 1009.0
20260503024517 53 229 0.0 1.7 0.00 0.00 0.00 83 1008.9
20260503023017 54 255 0.0 4.3 0.00 0.00 0.00 81 1008.8
20260503021517 55 263 0.0 2.6 0.00 0.00 0.00 78 1008.8
20260503020017 57 267 0.0 4.3 0.00 0.00 0.00 75 1008.7
20260503014515 58 237 0.0 1.7 0.00 0.00 0.00 72 1008.6
20260503013015 60 327 0.0 1.7 0.00 0.00 0.00 70 1008.4
20260503011515 60 205 0.0 4.3 0.00 0.00 0.00 69 1008.5
20260503010014 61 226 0.0 3.5 0.00 0.00 0.00 67 1008.3
20260503004515 62 184 0.0 7.0 0.00 0.00 0.00 65 1008.4
20260503003014 62 304 0.9 4.3 0.00 0.00 0.00 65 1008.3
20260503001513 63 232 1.7 10.4 0.00 0.00 0.00 64 1008.3
20260503000026 64 232 0.9 3.5 0.00 0.00 0.00 63 1008.2
20260502234513 64 238 0.9 5.2 0.00 0.00 0.00 63 1008.3
20260502233011 65 279 0.0 5.2 0.00 0.00 0.00 62 1008.5
20260502231508 65 140 0.0 4.3 0.00 0.00 0.00 63 1008.6
20260502230008 65 242 0.9 5.2 0.00 0.00 0.00 62 1008.8
20260502224505 65 213 0.9 4.3 0.00 0.00 0.00 65 1009.1
20260502223008 66 190 0.9 6.1 0.00 0.00 0.00 63 1009.4
20260502221501 66 236 0.9 5.2 0.00 0.00 0.00 63 1009.6
20260502220109 66 270 0.9 7.0 0.00 0.00 0.00 64 1009.9
20260502214555 66 215 0.9 5.2 0.00 0.00 0.00 62 1010.2
20260502213053 66 207 0.0 4.3 0.00 0.00 0.00 65 1010.4